Year,Month,Day,Hour,Minute,Value (Times are PST for temperature in C)
2013,07,17,00,00,20.20
2013,07,17,00,01,20.20
2013,07,17,00,02,20.20
2013,07,17,00,03,20.20
2013,07,17,00,04,20.20
2013,07,17,00,05,20.20
2013,07,17,00,06,20.20
2013,07,17,00,07,20.20
2013,07,17,00,08,20.20
2013,07,17,00,09,20.20
2013,07,17,00,10,20.20
2013,07,17,00,11,20.20
2013,07,17,00,12,20.10
2013,07,17,00,13,20.10
2013,07,17,00,14,20.10
2013,07,17,00,15,20.10
2013,07,17,00,16,20.10
2013,07,17,00,17,20.10
2013,07,17,00,18,20.10
2013,07,17,00,19,20.20
2013,07,17,00,20,20.20
2013,07,17,00,21,20.30
2013,07,17,00,22,20.30
2013,07,17,00,23,20.40
2013,07,17,00,24,20.40
2013,07,17,00,25,20.40
2013,07,17,00,26,20.50
2013,07,17,00,27,20.50
2013,07,17,00,28,20.50
2013,07,17,00,29,20.50
2013,07,17,00,30,20.50
2013,07,17,00,31,20.50
2013,07,17,00,32,20.50
2013,07,17,00,33,20.50
2013,07,17,00,34,20.50
2013,07,17,00,35,20.50
2013,07,17,00,36,20.50
2013,07,17,00,37,20.40
2013,07,17,00,38,20.40
2013,07,17,00,39,20.40
2013,07,17,00,40,20.40
2013,07,17,00,41,20.40
2013,07,17,00,42,20.40
2013,07,17,00,43,20.40
2013,07,17,00,44,20.50
2013,07,17,00,45,20.50
2013,07,17,00,46,20.60
2013,07,17,00,47,20.70
2013,07,17,00,48,20.70
2013,07,17,00,49,20.80
2013,07,17,00,50,20.80
2013,07,17,00,51,20.90
2013,07,17,00,52,20.90
2013,07,17,00,53,20.90
2013,07,17,00,54,20.90
2013,07,17,00,55,20.90
2013,07,17,00,56,20.90
2013,07,17,00,57,20.90
2013,07,17,00,58,20.90
2013,07,17,00,59,20.90
2013,07,17,01,00,21.00
2013,07,17,01,01,21.00
2013,07,17,01,02,21.00
2013,07,17,01,03,21.00
2013,07,17,01,04,21.00
2013,07,17,01,05,21.00
2013,07,17,01,06,21.10
2013,07,17,01,07,21.00
2013,07,17,01,08,21.00
2013,07,17,01,09,21.00
2013,07,17,01,10,21.00
2013,07,17,01,11,21.00
2013,07,17,01,12,21.00
2013,07,17,01,13,21.00
2013,07,17,01,14,21.00
2013,07,17,01,15,21.00
2013,07,17,01,16,21.10
2013,07,17,01,17,21.10
2013,07,17,01,18,21.10
2013,07,17,01,19,21.10
2013,07,17,01,20,21.10
2013,07,17,01,21,21.10
2013,07,17,01,22,21.10
2013,07,17,01,23,21.10
2013,07,17,01,24,21.10
2013,07,17,01,25,21.10
2013,07,17,01,26,21.10
2013,07,17,01,27,21.10
2013,07,17,01,28,21.10
2013,07,17,01,29,21.10
2013,07,17,01,30,21.00
2013,07,17,01,31,21.00
2013,07,17,01,32,20.90
2013,07,17,01,33,20.90
2013,07,17,01,34,20.90
2013,07,17,01,35,20.80
2013,07,17,01,36,20.80
2013,07,17,01,37,20.80
2013,07,17,01,38,20.80
2013,07,17,01,39,20.80
2013,07,17,01,40,20.80
2013,07,17,01,41,20.80
2013,07,17,01,42,20.80
2013,07,17,01,43,20.80
2013,07,17,01,44,20.70
2013,07,17,01,45,20.70
2013,07,17,01,46,20.70
2013,07,17,01,47,20.70
2013,07,17,01,48,20.70
2013,07,17,01,49,20.70
2013,07,17,01,50,20.70
2013,07,17,01,51,20.70
2013,07,17,01,52,20.70
2013,07,17,01,53,20.70
2013,07,17,01,54,20.70
2013,07,17,01,55,20.70
2013,07,17,01,56,20.70
2013,07,17,01,57,20.80
2013,07,17,01,58,20.80
2013,07,17,01,59,20.80
2013,07,17,02,00,20.80
2013,07,17,02,01,20.80
2013,07,17,02,02,20.80
2013,07,17,02,03,20.90
2013,07,17,02,04,20.90
2013,07,17,02,05,20.90
2013,07,17,02,06,20.90
2013,07,17,02,07,20.90
2013,07,17,02,08,20.90
2013,07,17,02,09,20.90
2013,07,17,02,10,20.90
2013,07,17,02,11,20.90
2013,07,17,02,12,20.90
2013,07,17,02,13,20.90
2013,07,17,02,14,20.80
2013,07,17,02,15,20.80
2013,07,17,02,16,20.80
2013,07,17,02,17,20.70
2013,07,17,02,18,20.70
2013,07,17,02,19,20.60
2013,07,17,02,20,20.60
2013,07,17,02,21,20.50
2013,07,17,02,22,20.50
2013,07,17,02,23,20.40
2013,07,17,02,24,20.40
2013,07,17,02,25,20.30
2013,07,17,02,26,20.30
2013,07,17,02,27,20.30
2013,07,17,02,28,20.20
2013,07,17,02,29,20.20
2013,07,17,02,30,20.20
2013,07,17,02,31,20.20
2013,07,17,02,32,20.20
2013,07,17,02,33,20.20
2013,07,17,02,34,20.20
2013,07,17,02,35,20.20
2013,07,17,02,36,20.20
2013,07,17,02,37,20.20
2013,07,17,02,38,20.20
2013,07,17,02,39,20.10
2013,07,17,02,40,20.10
2013,07,17,02,41,20.00
2013,07,17,02,42,19.90
2013,07,17,02,43,19.80
2013,07,17,02,44,19.80
2013,07,17,02,45,19.80
2013,07,17,02,46,19.80
2013,07,17,02,47,19.80
2013,07,17,02,48,19.80
2013,07,17,02,49,19.90
2013,07,17,02,50,19.90
2013,07,17,02,51,19.90
2013,07,17,02,52,19.90
2013,07,17,02,53,19.90
2013,07,17,02,54,19.90
2013,07,17,02,55,19.80
2013,07,17,02,56,19.80
2013,07,17,02,57,19.70
2013,07,17,02,58,19.60
2013,07,17,02,59,19.50
2013,07,17,03,00,19.30
2013,07,17,03,01,19.20
2013,07,17,03,02,19.00
2013,07,17,03,03,18.80
2013,07,17,03,04,18.60
2013,07,17,03,05,18.50
2013,07,17,03,06,18.30
2013,07,17,03,07,18.20
2013,07,17,03,08,18.00
2013,07,17,03,09,17.80
2013,07,17,03,10,17.60
2013,07,17,03,11,17.40
2013,07,17,03,12,17.30
2013,07,17,03,13,17.20
2013,07,17,03,14,17.10
2013,07,17,03,15,17.00
2013,07,17,03,16,16.80
2013,07,17,03,17,16.70
2013,07,17,03,18,16.70
2013,07,17,03,19,16.50
2013,07,17,03,20,16.40
2013,07,17,03,21,16.40
2013,07,17,03,22,16.30
2013,07,17,03,23,16.20
2013,07,17,03,24,16.10
2013,07,17,03,25,16.10
2013,07,17,03,26,16.10
2013,07,17,03,27,16.10
2013,07,17,03,28,16.10
2013,07,17,03,29,16.10
2013,07,17,03,30,16.00
2013,07,17,03,31,15.90
2013,07,17,03,32,16.00
2013,07,17,03,33,16.10
2013,07,17,03,34,16.10
2013,07,17,03,35,16.10
2013,07,17,03,36,16.10
2013,07,17,03,37,16.10
2013,07,17,03,38,16.10
2013,07,17,03,39,16.20
2013,07,17,03,40,16.20
2013,07,17,03,41,16.20
2013,07,17,03,42,16.20
2013,07,17,03,43,16.20
2013,07,17,03,44,16.30
2013,07,17,03,45,16.30
2013,07,17,03,46,16.30
2013,07,17,03,47,16.30
2013,07,17,03,48,16.30
2013,07,17,03,49,16.30
2013,07,17,03,50,16.40
2013,07,17,03,51,16.40
2013,07,17,03,52,16.40
2013,07,17,03,53,16.40
2013,07,17,03,54,16.40
2013,07,17,03,55,16.40
2013,07,17,03,56,16.40
2013,07,17,03,57,16.40
2013,07,17,03,58,16.40
2013,07,17,03,59,16.40
2013,07,17,04,00,16.40
2013,07,17,04,01,16.40
2013,07,17,04,02,16.40
2013,07,17,04,03,16.40
2013,07,17,04,04,16.40
2013,07,17,04,05,16.40
2013,07,17,04,06,16.40
2013,07,17,04,07,16.40
2013,07,17,04,08,16.40
2013,07,17,04,09,16.50
2013,07,17,04,10,16.60
2013,07,17,04,11,16.60
2013,07,17,04,12,16.60
2013,07,17,04,13,16.60
2013,07,17,04,14,16.60
2013,07,17,04,15,16.60
2013,07,17,04,16,16.60
2013,07,17,04,17,16.60
2013,07,17,04,18,16.60
2013,07,17,04,19,16.60
2013,07,17,04,20,16.60
2013,07,17,04,21,16.60
2013,07,17,04,22,16.60
2013,07,17,04,23,16.60
2013,07,17,04,24,16.60
2013,07,17,04,25,16.60
2013,07,17,04,26,16.60
2013,07,17,04,27,16.60
2013,07,17,04,28,16.60
2013,07,17,04,29,16.60
2013,07,17,04,30,16.60
2013,07,17,04,31,16.60
2013,07,17,04,32,16.60
2013,07,17,04,33,16.60
2013,07,17,04,34,16.60
2013,07,17,04,35,16.60
2013,07,17,04,36,16.60
2013,07,17,04,37,16.60
2013,07,17,04,38,16.60
2013,07,17,04,39,16.60
2013,07,17,04,40,16.60
2013,07,17,04,41,16.60
2013,07,17,04,42,16.60
2013,07,17,04,43,16.60
2013,07,17,04,44,16.60
2013,07,17,04,45,16.60
2013,07,17,04,46,16.60
2013,07,17,04,47,16.60
2013,07,17,04,48,16.60
2013,07,17,04,49,16.60
2013,07,17,04,50,16.60
2013,07,17,04,51,16.60
2013,07,17,04,52,16.60
2013,07,17,04,53,16.60
2013,07,17,04,54,16.60
2013,07,17,04,55,16.60
2013,07,17,04,56,16.60
2013,07,17,04,57,16.60
2013,07,17,04,58,16.60
2013,07,17,04,59,16.60
2013,07,17,05,00,16.60
2013,07,17,05,01,16.60
2013,07,17,05,02,16.60
2013,07,17,05,03,16.70
2013,07,17,05,04,16.70
2013,07,17,05,05,16.70
2013,07,17,05,06,16.70
2013,07,17,05,07,16.70
2013,07,17,05,08,16.70
2013,07,17,05,09,16.70
2013,07,17,05,10,16.70
2013,07,17,05,11,16.70
2013,07,17,05,12,16.70
2013,07,17,05,13,16.80
2013,07,17,05,14,16.80
2013,07,17,05,15,16.90
2013,07,17,05,16,17.00
2013,07,17,05,17,17.00
2013,07,17,05,18,17.10
2013,07,17,05,19,17.20
2013,07,17,05,20,17.30
2013,07,17,05,21,17.30
2013,07,17,05,22,17.40
2013,07,17,05,23,17.40
2013,07,17,05,24,17.50
2013,07,17,05,25,17.50
2013,07,17,05,26,17.60
2013,07,17,05,27,17.60
2013,07,17,05,28,17.60
2013,07,17,05,29,17.60
2013,07,17,05,30,17.60
2013,07,17,05,31,17.60
2013,07,17,05,32,17.60
2013,07,17,05,33,17.70
2013,07,17,05,34,17.70
2013,07,17,05,35,17.70
2013,07,17,05,36,17.70
2013,07,17,05,37,17.60
2013,07,17,05,38,17.60
2013,07,17,05,39,17.60
2013,07,17,05,40,17.60
2013,07,17,05,41,17.50
2013,07,17,05,42,17.50
2013,07,17,05,43,17.50
2013,07,17,05,44,17.50
2013,07,17,05,45,17.50
2013,07,17,05,46,17.50
2013,07,17,05,47,17.50
2013,07,17,05,48,17.50
2013,07,17,05,49,17.50
2013,07,17,05,50,17.50
2013,07,17,05,51,17.50
2013,07,17,05,52,17.50
2013,07,17,05,53,17.50
2013,07,17,05,54,17.50
2013,07,17,05,55,17.50
2013,07,17,05,56,17.50
2013,07,17,05,57,17.50
2013,07,17,05,58,17.50
2013,07,17,05,59,17.50
2013,07,17,06,00,17.50
2013,07,17,06,01,17.50
2013,07,17,06,02,17.50
2013,07,17,06,03,17.50
2013,07,17,06,04,17.40
2013,07,17,06,05,17.40
2013,07,17,06,06,17.40
2013,07,17,06,07,17.40
2013,07,17,06,08,17.40
2013,07,17,06,09,17.40
2013,07,17,06,10,17.30
2013,07,17,06,11,17.30
2013,07,17,06,12,17.30
2013,07,17,06,13,17.30
2013,07,17,06,14,17.30
2013,07,17,06,15,17.30
2013,07,17,06,16,17.30
2013,07,17,06,17,17.30
2013,07,17,06,18,17.30
2013,07,17,06,19,17.30
2013,07,17,06,20,17.30
2013,07,17,06,21,17.30
2013,07,17,06,22,17.30
2013,07,17,06,23,17.30
2013,07,17,06,24,17.30
2013,07,17,06,25,17.20
2013,07,17,06,26,17.20
2013,07,17,06,27,17.20
2013,07,17,06,28,17.20
2013,07,17,06,29,17.20
2013,07,17,06,30,17.20
2013,07,17,06,31,17.20
2013,07,17,06,32,17.20
2013,07,17,06,33,17.20
2013,07,17,06,34,17.20
2013,07,17,06,35,17.30
2013,07,17,06,36,17.30
2013,07,17,06,37,17.30
2013,07,17,06,38,17.30
2013,07,17,06,39,17.30
2013,07,17,06,40,17.30
2013,07,17,06,41,17.30
2013,07,17,06,42,17.30
2013,07,17,06,43,17.30
2013,07,17,06,44,17.30
2013,07,17,06,45,17.30
2013,07,17,06,46,17.30
2013,07,17,06,47,17.30
2013,07,17,06,48,17.30
2013,07,17,06,49,17.40
2013,07,17,06,50,17.40
2013,07,17,06,51,17.40
2013,07,17,06,52,17.40
2013,07,17,06,53,17.50
2013,07,17,06,54,17.50
2013,07,17,06,55,17.50
2013,07,17,06,56,17.60
2013,07,17,06,57,17.60
2013,07,17,06,58,17.60
2013,07,17,06,59,17.60
2013,07,17,07,00,17.60
2013,07,17,07,01,17.60
2013,07,17,07,02,17.60
2013,07,17,07,03,17.60
2013,07,17,07,04,17.60
2013,07,17,07,05,17.60
2013,07,17,07,06,17.60
2013,07,17,07,07,17.60
2013,07,17,07,08,17.60
2013,07,17,07,09,17.60
2013,07,17,07,10,17.60
2013,07,17,07,11,17.60
2013,07,17,07,12,17.70
2013,07,17,07,13,17.70
2013,07,17,07,14,17.70
2013,07,17,07,15,17.70
2013,07,17,07,16,17.70
2013,07,17,07,17,17.70
2013,07,17,07,18,17.60
2013,07,17,07,19,17.60
2013,07,17,07,20,17.60
2013,07,17,07,21,17.60
2013,07,17,07,22,17.70
2013,07,17,07,23,17.70
2013,07,17,07,24,17.70
2013,07,17,07,25,17.70
2013,07,17,07,26,17.70
2013,07,17,07,27,17.70
2013,07,17,07,28,17.70
2013,07,17,07,29,17.70
2013,07,17,07,30,17.70
2013,07,17,07,31,17.70
2013,07,17,07,32,17.80
2013,07,17,07,33,17.80
2013,07,17,07,34,17.80
2013,07,17,07,35,17.90
2013,07,17,07,36,17.90
2013,07,17,07,37,17.90
2013,07,17,07,38,18.00
2013,07,17,07,39,18.10
2013,07,17,07,40,18.20
2013,07,17,07,41,18.20
2013,07,17,07,42,18.30
2013,07,17,07,43,18.30
2013,07,17,07,44,18.40
2013,07,17,07,45,18.50
2013,07,17,07,46,18.60
2013,07,17,07,47,18.70
2013,07,17,07,48,18.80
2013,07,17,07,49,18.90
2013,07,17,07,50,18.90
2013,07,17,07,51,19.00
2013,07,17,07,52,19.10
2013,07,17,07,53,19.20
2013,07,17,07,54,19.30
2013,07,17,07,55,19.40
2013,07,17,07,56,19.50
2013,07,17,07,57,19.60
2013,07,17,07,58,19.70
2013,07,17,07,59,19.70
2013,07,17,08,00,19.80
2013,07,17,08,01,19.80
2013,07,17,08,02,19.90
2013,07,17,08,03,19.90
2013,07,17,08,04,19.90
2013,07,17,08,05,19.90
2013,07,17,08,06,20.00
2013,07,17,08,07,20.10
2013,07,17,08,08,20.20
2013,07,17,08,09,20.30
2013,07,17,08,10,20.40
2013,07,17,08,11,20.50
2013,07,17,08,12,20.60
2013,07,17,08,13,20.70
2013,07,17,08,14,20.70
2013,07,17,08,15,20.80
2013,07,17,08,16,20.90
2013,07,17,08,17,20.90
2013,07,17,08,18,21.00
2013,07,17,08,19,21.00
2013,07,17,08,20,20.90
2013,07,17,08,21,20.80
2013,07,17,08,22,20.80
2013,07,17,08,23,20.70
2013,07,17,08,24,20.60
2013,07,17,08,25,20.60
2013,07,17,08,26,20.60
2013,07,17,08,27,20.60
2013,07,17,08,28,20.60
2013,07,17,08,29,20.70
2013,07,17,08,30,20.70
2013,07,17,08,31,20.70
2013,07,17,08,32,20.80
2013,07,17,08,33,20.80
2013,07,17,08,34,20.80
2013,07,17,08,35,20.80
2013,07,17,08,36,20.80
2013,07,17,08,37,20.80
2013,07,17,08,38,20.80
2013,07,17,08,39,20.80
2013,07,17,08,40,20.90
2013,07,17,08,41,21.00
2013,07,17,08,42,21.10
2013,07,17,08,43,21.20
2013,07,17,08,44,21.30
2013,07,17,08,45,21.30
2013,07,17,08,46,21.30
2013,07,17,08,47,21.30
2013,07,17,08,48,21.30
2013,07,17,08,49,21.30
2013,07,17,08,50,21.20
2013,07,17,08,51,21.20
2013,07,17,08,52,21.20
2013,07,17,08,53,21.20
2013,07,17,08,54,21.20
2013,07,17,08,55,21.30
2013,07,17,08,56,21.40
2013,07,17,08,57,21.50
2013,07,17,08,58,21.60
2013,07,17,08,59,21.70
2013,07,17,09,00,21.80
2013,07,17,09,01,21.90
2013,07,17,09,02,22.00
2013,07,17,09,03,22.10
2013,07,17,09,04,22.20
2013,07,17,09,05,22.20
2013,07,17,09,06,22.30
2013,07,17,09,07,22.40
2013,07,17,09,08,22.40
2013,07,17,09,09,22.50
2013,07,17,09,10,22.60
2013,07,17,09,11,22.70
2013,07,17,09,12,22.70
2013,07,17,09,13,22.70
2013,07,17,09,14,22.60
2013,07,17,09,15,22.60
2013,07,17,09,16,22.50
2013,07,17,09,17,22.40
2013,07,17,09,18,22.40
2013,07,17,09,19,22.30
2013,07,17,09,20,22.10
2013,07,17,09,21,22.00
2013,07,17,09,22,21.80
2013,07,17,09,23,21.70
2013,07,17,09,24,21.60
2013,07,17,09,25,21.40
2013,07,17,09,26,21.30
2013,07,17,09,27,21.30
2013,07,17,09,28,21.20
2013,07,17,09,29,21.20
2013,07,17,09,30,21.10
2013,07,17,09,31,21.10
2013,07,17,09,32,21.10
2013,07,17,09,33,21.10
2013,07,17,09,34,21.10
2013,07,17,09,35,21.10
2013,07,17,09,36,21.10
2013,07,17,09,37,21.10
2013,07,17,09,38,21.10
2013,07,17,09,39,21.00
2013,07,17,09,40,21.00
2013,07,17,09,41,20.90
2013,07,17,09,42,20.90
2013,07,17,09,43,20.90
2013,07,17,09,44,20.90
2013,07,17,09,45,21.00
2013,07,17,09,46,21.00
2013,07,17,09,47,21.10
2013,07,17,09,48,21.20
2013,07,17,09,49,21.20
2013,07,17,09,50,21.20
2013,07,17,09,51,21.20
2013,07,17,09,52,21.20
2013,07,17,09,53,21.20
2013,07,17,09,54,21.20
2013,07,17,09,55,21.20
2013,07,17,09,56,21.20
2013,07,17,09,57,21.30
2013,07,17,09,58,21.30
2013,07,17,09,59,21.30
2013,07,17,10,00,21.30
2013,07,17,10,01,21.30
2013,07,17,10,02,21.30
2013,07,17,10,03,21.30
2013,07,17,10,04,21.30
2013,07,17,10,05,21.30
2013,07,17,10,06,21.40
2013,07,17,10,07,21.40
2013,07,17,10,08,21.40
2013,07,17,10,09,21.50
2013,07,17,10,10,21.60
2013,07,17,10,11,21.60
2013,07,17,10,12,21.60
2013,07,17,10,13,21.70
2013,07,17,10,14,21.80
2013,07,17,10,15,21.80
2013,07,17,10,16,21.80
2013,07,17,10,17,21.90
2013,07,17,10,18,21.90
2013,07,17,10,19,21.90
2013,07,17,10,20,22.00
2013,07,17,10,21,22.10
2013,07,17,10,22,22.10
2013,07,17,10,23,22.10
2013,07,17,10,24,22.00
2013,07,17,10,25,22.00
2013,07,17,10,26,22.00
2013,07,17,10,27,21.90
2013,07,17,10,28,21.70
2013,07,17,10,29,21.60
2013,07,17,10,30,21.40
2013,07,17,10,31,21.40
2013,07,17,10,32,21.30
2013,07,17,10,33,21.30
2013,07,17,10,34,21.30
2013,07,17,10,35,21.40
2013,07,17,10,36,21.40
2013,07,17,10,37,21.30
2013,07,17,10,38,21.30
2013,07,17,10,39,21.30
2013,07,17,10,40,21.30
2013,07,17,10,41,21.30
2013,07,17,10,42,21.30
2013,07,17,10,43,21.30
2013,07,17,10,44,21.30
2013,07,17,10,45,21.30
2013,07,17,10,46,21.40
2013,07,17,10,47,21.50
2013,07,17,10,48,21.60
2013,07,17,10,49,21.60
2013,07,17,10,50,21.60
2013,07,17,10,51,21.60
2013,07,17,10,52,21.70
2013,07,17,10,53,21.80
2013,07,17,10,54,21.90
2013,07,17,10,55,22.00
2013,07,17,10,56,22.10
2013,07,17,10,57,22.20
2013,07,17,10,58,22.30
2013,07,17,10,59,22.40
2013,07,17,11,00,22.40
2013,07,17,11,01,22.30
2013,07,17,11,02,22.20
2013,07,17,11,03,22.10
2013,07,17,11,04,22.00
2013,07,17,11,05,22.00
2013,07,17,11,06,22.00
2013,07,17,11,07,22.00
2013,07,17,11,08,22.10
2013,07,17,11,09,22.00
2013,07,17,11,10,22.00
2013,07,17,11,11,21.90
2013,07,17,11,12,21.80
2013,07,17,11,13,21.80
2013,07,17,11,14,21.80
2013,07,17,11,15,21.80
2013,07,17,11,16,21.80
2013,07,17,11,17,21.80
2013,07,17,11,18,21.60
2013,07,17,11,19,21.60
2013,07,17,11,20,21.40
2013,07,17,11,21,21.30
2013,07,17,11,22,21.30
2013,07,17,11,23,21.30
2013,07,17,11,24,21.30
2013,07,17,11,25,21.50
2013,07,17,11,26,21.60
2013,07,17,11,27,21.60
2013,07,17,11,28,21.60
2013,07,17,11,29,21.60
2013,07,17,11,30,21.60
2013,07,17,11,31,21.70
2013,07,17,11,32,21.70
2013,07,17,11,33,21.90
2013,07,17,11,34,22.00
2013,07,17,11,35,22.00
2013,07,17,11,36,21.90
2013,07,17,11,37,21.80
2013,07,17,11,38,21.80
2013,07,17,11,39,21.90
2013,07,17,11,40,21.90
2013,07,17,11,41,21.90
2013,07,17,11,42,21.90
2013,07,17,11,43,22.00
2013,07,17,11,44,22.00
2013,07,17,11,45,22.00
2013,07,17,11,46,22.00
2013,07,17,11,47,22.00
2013,07,17,11,48,21.90
2013,07,17,11,49,21.70
2013,07,17,11,50,21.80
2013,07,17,11,51,21.90
2013,07,17,11,52,21.90
2013,07,17,11,53,22.00
2013,07,17,11,54,22.00
2013,07,17,11,55,22.10
2013,07,17,11,56,22.10
2013,07,17,11,57,22.20
2013,07,17,11,58,22.20
2013,07,17,11,59,22.20
2013,07,17,12,00,22.30
2013,07,17,12,01,22.40
2013,07,17,12,02,22.50
2013,07,17,12,03,22.50
2013,07,17,12,04,22.50
2013,07,17,12,05,22.40
2013,07,17,12,06,22.40
2013,07,17,12,07,22.40
2013,07,17,12,08,22.40
2013,07,17,12,09,22.30
2013,07,17,12,10,22.20
2013,07,17,12,11,22.10
2013,07,17,12,12,22.00
2013,07,17,12,13,22.00
2013,07,17,12,14,21.90
2013,07,17,12,15,21.80
2013,07,17,12,16,21.80
2013,07,17,12,17,21.90
2013,07,17,12,18,22.00
2013,07,17,12,19,22.00
2013,07,17,12,20,22.00
2013,07,17,12,21,21.90
2013,07,17,12,22,21.80
2013,07,17,12,23,21.70
2013,07,17,12,24,21.60
2013,07,17,12,25,21.70
2013,07,17,12,26,21.70
2013,07,17,12,27,21.60
2013,07,17,12,28,21.60
2013,07,17,12,29,21.70
2013,07,17,12,30,21.70
2013,07,17,12,31,21.70
2013,07,17,12,32,21.70
2013,07,17,12,33,21.70
2013,07,17,12,34,21.70
2013,07,17,12,35,21.90
2013,07,17,12,36,21.90
2013,07,17,12,37,21.80
2013,07,17,12,38,21.70
2013,07,17,12,39,21.60
2013,07,17,12,40,21.60
2013,07,17,12,41,21.60
2013,07,17,12,42,21.60
2013,07,17,12,43,21.60
2013,07,17,12,44,21.50
2013,07,17,12,45,21.30
2013,07,17,12,46,21.00
2013,07,17,12,47,20.90
2013,07,17,12,48,20.70
2013,07,17,12,49,20.60
2013,07,17,12,50,20.50
2013,07,17,12,51,20.40
2013,07,17,12,52,20.30
2013,07,17,12,53,20.30
2013,07,17,12,54,20.30
2013,07,17,12,55,20.40
2013,07,17,12,56,20.30
2013,07,17,12,57,20.30
2013,07,17,12,58,20.30
2013,07,17,12,59,20.30
2013,07,17,13,00,20.40
2013,07,17,13,01,20.40
2013,07,17,13,02,20.50
2013,07,17,13,03,20.50
2013,07,17,13,04,20.50
2013,07,17,13,05,20.40
2013,07,17,13,06,20.30
2013,07,17,13,07,20.20
2013,07,17,13,08,20.20
2013,07,17,13,09,20.20
2013,07,17,13,10,20.20
2013,07,17,13,11,20.40
2013,07,17,13,12,20.50
2013,07,17,13,13,20.60
2013,07,17,13,14,20.80
2013,07,17,13,15,20.90
2013,07,17,13,16,21.00
2013,07,17,13,17,21.10
2013,07,17,13,18,21.20
2013,07,17,13,19,21.10
2013,07,17,13,20,21.10
2013,07,17,13,21,21.20
2013,07,17,13,22,21.20
2013,07,17,13,23,21.30
2013,07,17,13,24,21.40
2013,07,17,13,25,21.50
2013,07,17,13,26,21.60
2013,07,17,13,27,21.60
2013,07,17,13,28,21.60
2013,07,17,13,29,21.40
2013,07,17,13,30,21.50
2013,07,17,13,31,21.60
2013,07,17,13,32,21.50
2013,07,17,13,33,21.40
2013,07,17,13,34,21.40
2013,07,17,13,35,21.30
2013,07,17,13,36,21.20
2013,07,17,13,37,21.10
2013,07,17,13,38,21.00
2013,07,17,13,39,20.90
2013,07,17,13,40,20.90
2013,07,17,13,41,21.00
2013,07,17,13,42,21.00
2013,07,17,13,43,20.90
2013,07,17,13,44,20.80
2013,07,17,13,45,20.90
2013,07,17,13,46,20.80
2013,07,17,13,47,20.80
2013,07,17,13,48,20.80
2013,07,17,13,49,20.90
2013,07,17,13,50,21.00
2013,07,17,13,51,21.10
2013,07,17,13,52,21.10
2013,07,17,13,53,21.10
2013,07,17,13,54,21.10
2013,07,17,13,55,21.20
2013,07,17,13,56,21.10
2013,07,17,13,57,21.00
2013,07,17,13,58,21.00
2013,07,17,13,59,21.00
2013,07,17,14,00,20.90
2013,07,17,14,01,21.00
2013,07,17,14,02,21.00
2013,07,17,14,03,21.10
2013,07,17,14,04,21.20
2013,07,17,14,05,21.30
2013,07,17,14,06,21.30
2013,07,17,14,07,21.30
2013,07,17,14,08,21.30
2013,07,17,14,09,21.30
2013,07,17,14,10,21.30
2013,07,17,14,11,21.30
2013,07,17,14,12,21.50
2013,07,17,14,13,21.60
2013,07,17,14,14,21.80
2013,07,17,14,15,21.90
2013,07,17,14,16,22.00
2013,07,17,14,17,22.20
2013,07,17,14,18,22.20
2013,07,17,14,19,22.00
2013,07,17,14,20,21.80
2013,07,17,14,21,21.60
2013,07,17,14,22,21.60
2013,07,17,14,23,21.60
2013,07,17,14,24,21.60
2013,07,17,14,25,21.70
2013,07,17,14,26,21.80
2013,07,17,14,27,21.90
2013,07,17,14,28,21.90
2013,07,17,14,29,21.90
2013,07,17,14,30,21.90
2013,07,17,14,31,21.80
2013,07,17,14,32,21.70
2013,07,17,14,33,21.60
2013,07,17,14,34,21.50
2013,07,17,14,35,21.40
2013,07,17,14,36,21.40
2013,07,17,14,37,21.40
2013,07,17,14,38,21.40
2013,07,17,14,39,21.40
2013,07,17,14,40,21.50
2013,07,17,14,41,21.60
2013,07,17,14,42,21.60
2013,07,17,14,43,21.60
2013,07,17,14,44,21.60
2013,07,17,14,45,21.80
2013,07,17,14,46,21.90
2013,07,17,14,47,22.00
2013,07,17,14,48,22.00
2013,07,17,14,49,22.00
2013,07,17,14,50,22.00
2013,07,17,14,51,22.00
2013,07,17,14,52,22.00
2013,07,17,14,53,22.00
2013,07,17,14,54,22.00
2013,07,17,14,55,22.00
2013,07,17,14,56,22.00
2013,07,17,14,57,22.00
2013,07,17,14,58,21.90
2013,07,17,14,59,21.80
2013,07,17,15,00,21.70
2013,07,17,15,01,21.80
2013,07,17,15,02,21.90
2013,07,17,15,03,21.90
2013,07,17,15,04,21.90
2013,07,17,15,05,21.80
2013,07,17,15,06,21.90
2013,07,17,15,07,21.90
2013,07,17,15,08,22.00
2013,07,17,15,09,22.00
2013,07,17,15,10,22.00
2013,07,17,15,11,21.90
2013,07,17,15,12,21.80
2013,07,17,15,13,21.70
2013,07,17,15,14,21.70
2013,07,17,15,15,21.60
2013,07,17,15,16,21.60
2013,07,17,15,17,21.60
2013,07,17,15,18,21.60
2013,07,17,15,19,21.60
2013,07,17,15,20,21.70
2013,07,17,15,21,21.80
2013,07,17,15,22,21.80
2013,07,17,15,23,21.80
2013,07,17,15,24,21.90
2013,07,17,15,25,21.90
2013,07,17,15,26,21.90
2013,07,17,15,27,21.80
2013,07,17,15,28,21.80
2013,07,17,15,29,21.80
2013,07,17,15,30,21.80
2013,07,17,15,31,21.80
2013,07,17,15,32,21.80
2013,07,17,15,33,21.80
2013,07,17,15,34,21.70
2013,07,17,15,35,21.60
2013,07,17,15,36,21.60
2013,07,17,15,37,21.60
2013,07,17,15,38,21.60
2013,07,17,15,39,21.60
2013,07,17,15,40,21.60
2013,07,17,15,41,21.60
2013,07,17,15,42,21.60
2013,07,17,15,43,21.60
2013,07,17,15,44,21.70
2013,07,17,15,45,21.80
2013,07,17,15,46,22.00
2013,07,17,15,47,22.00
2013,07,17,15,48,22.20
2013,07,17,15,49,22.30
2013,07,17,15,50,22.50
2013,07,17,15,51,22.60
2013,07,17,15,52,22.60
2013,07,17,15,53,22.50
2013,07,17,15,54,22.50
2013,07,17,15,55,22.50
2013,07,17,15,56,22.60
2013,07,17,15,57,22.70
2013,07,17,15,58,22.60
2013,07,17,15,59,22.60
2013,07,17,16,00,22.60
2013,07,17,16,01,22.60
2013,07,17,16,02,22.70
2013,07,17,16,03,22.80
2013,07,17,16,04,22.80
2013,07,17,16,05,22.70
2013,07,17,16,06,22.60
2013,07,17,16,07,22.60
2013,07,17,16,08,22.60
2013,07,17,16,09,22.50
2013,07,17,16,10,22.40
2013,07,17,16,11,22.50
2013,07,17,16,12,22.50
2013,07,17,16,13,22.50
2013,07,17,16,14,22.50
2013,07,17,16,15,22.50
2013,07,17,16,16,22.50
2013,07,17,16,17,22.40
2013,07,17,16,18,22.40
2013,07,17,16,19,22.30
2013,07,17,16,20,22.30
2013,07,17,16,21,22.40
2013,07,17,16,22,22.40
2013,07,17,16,23,22.50
2013,07,17,16,24,22.60
2013,07,17,16,25,22.60
2013,07,17,16,26,22.60
2013,07,17,16,27,22.60
2013,07,17,16,28,22.70
2013,07,17,16,29,22.70
2013,07,17,16,30,22.80
2013,07,17,16,31,22.80
2013,07,17,16,32,22.90
2013,07,17,16,33,22.90
2013,07,17,16,34,23.00
2013,07,17,16,35,23.10
2013,07,17,16,36,23.20
2013,07,17,16,37,23.30
2013,07,17,16,38,23.30
2013,07,17,16,39,23.40
2013,07,17,16,40,23.40
2013,07,17,16,41,23.50
2013,07,17,16,42,23.60
2013,07,17,16,43,23.60
2013,07,17,16,44,23.70
2013,07,17,16,45,23.70
2013,07,17,16,46,23.70
2013,07,17,16,47,23.70
2013,07,17,16,48,23.70
2013,07,17,16,49,23.60
2013,07,17,16,50,23.60
2013,07,17,16,51,23.50
2013,07,17,16,52,23.40
2013,07,17,16,53,23.30
2013,07,17,16,54,23.30
2013,07,17,16,55,23.30
2013,07,17,16,56,23.30
2013,07,17,16,57,23.30
2013,07,17,16,58,23.30
2013,07,17,16,59,23.40
2013,07,17,17,00,23.40
2013,07,17,17,01,23.40
2013,07,17,17,02,23.40
2013,07,17,17,03,23.50
2013,07,17,17,04,23.50
2013,07,17,17,05,23.30
2013,07,17,17,06,23.30
2013,07,17,17,07,23.30
2013,07,17,17,08,23.30
2013,07,17,17,09,23.30
2013,07,17,17,10,23.30
2013,07,17,17,11,23.30
2013,07,17,17,12,23.30
2013,07,17,17,13,23.20
2013,07,17,17,14,23.20
2013,07,17,17,15,23.20
2013,07,17,17,16,23.20
2013,07,17,17,17,23.20
2013,07,17,17,18,23.30
2013,07,17,17,19,23.30